Time,TemperatureF,DewpointF,PressureIn,WindDirection,WindDirectionDegrees,WindSpeedMPH,WindSpeedGustMPH,Humidity,HourlyPrecipIn,Conditions,Clouds,dailyrainin,SoftwareType,DateUTC
2013-01-31 00:03:00,27.0,22.0,29.60,West,281,7.0,17.0,82,0.00,,,1.10,,2013-01-31 05:03:00,
2013-01-31 00:11:00,27.0,22.0,29.60,West,281,7.0,17.0,82,0.00,,,1.10,,2013-01-31 05:11:00,
2013-01-31 00:22:00,27.0,23.0,29.60,West,260,5.0,14.0,83,0.00,,,1.10,,2013-01-31 05:22:00,
2013-01-31 00:32:00,27.0,23.0,29.60,West,260,5.0,14.0,83,0.00,,,1.10,,2013-01-31 05:32:00,
2013-01-31 00:41:00,26.0,21.0,29.62,NNW,334,7.0,23.0,82,0.00,,,1.10,,2013-01-31 05:41:00,
2013-01-31 00:52:00,26.0,21.0,29.62,NNW,334,7.0,23.0,82,0.00,,,1.10,,2013-01-31 05:52:00,
2013-01-31 01:01:00,26.0,21.0,29.62,NNW,334,7.0,23.0,82,0.00,,,1.10,,2013-01-31 06:01:00,
2013-01-31 01:10:00,26.0,21.0,29.62,NNW,334,7.0,23.0,82,0.00,,,1.10,,2013-01-31 06:10:00,
2013-01-31 09:02:00,21.0,16.0,29.85,SW,232,5.0,11.0,79,0.00,,,0.15,,2013-01-31 14:02:00,
2013-01-31 09:11:00,21.0,16.0,29.85,SW,232,5.0,11.0,79,0.00,,,0.15,,2013-01-31 14:11:00,
2013-01-31 09:22:00,21.0,16.0,29.86,SW,227,4.0,11.0,82,0.00,,,0.15,,2013-01-31 14:22:00,
2013-01-31 09:32:00,21.0,17.0,29.86,SW,221,6.0,13.0,84,0.00,,,0.15,,2013-01-31 14:32:00,
2013-01-31 09:42:00,21.0,17.0,29.86,SW,221,6.0,13.0,84,0.00,,,0.15,,2013-01-31 14:42:00,
2013-01-31 09:52:00,21.0,17.0,29.86,SW,235,4.0,9.0,85,0.00,,,0.15,,2013-01-31 14:52:00,
2013-01-31 10:03:00,21.0,17.0,29.87,WSW,251,3.0,10.0,85,0.00,,,0.15,,2013-01-31 15:03:00,
2013-01-31 10:12:00,21.0,17.0,29.87,WSW,251,3.0,10.0,85,0.00,,,0.15,,2013-01-31 15:12:00,
2013-01-31 10:22:00,22.0,18.0,29.88,West,270,4.0,12.0,84,0.00,,,0.15,,2013-01-31 15:22:00,
2013-01-31 10:32:00,23.0,19.0,29.88,West,265,5.0,12.0,83,0.00,,,0.15,,2013-01-31 15:32:00,
2013-01-31 10:42:00,23.0,19.0,29.88,West,265,5.0,12.0,83,0.00,,,0.15,,2013-01-31 15:42:00,
2013-01-31 10:52:00,24.0,19.0,29.88,West,262,4.0,14.0,82,0.00,,,0.15,,2013-01-31 15:52:00,
2013-01-31 11:03:00,24.0,18.0,29.88,West,268,7.0,14.0,79,0.00,,,0.15,,2013-01-31 16:03:00,
2013-01-31 11:12:00,24.0,18.0,29.88,West,268,7.0,14.0,79,0.00,,,0.15,,2013-01-31 16:12:00,
2013-01-31 11:22:00,24.0,18.0,29.89,WSW,252,6.0,15.0,78,0.00,,,0.15,,2013-01-31 16:22:00,
2013-01-31 11:33:00,23.0,19.0,29.90,WSW,253,4.0,14.0,86,0.00,,,0.15,,2013-01-31 16:33:00,
2013-01-31 11:42:00,23.0,19.0,29.90,WSW,253,4.0,14.0,86,0.00,,,0.15,,2013-01-31 16:42:00,
2013-01-31 11:52:00,23.0,19.0,29.90,WSW,253,4.0,14.0,86,0.00,,,0.15,,2013-01-31 16:52:00,
2013-01-31 12:02:00,23.0,19.0,29.90,WSW,253,4.0,14.0,86,0.00,,,0.15,,2013-01-31 17:02:00,
2013-01-31 12:12:00,23.0,19.0,29.90,WSW,253,4.0,14.0,86,0.00,,,0.15,,2013-01-31 17:12:00,
2013-01-31 12:23:00,23.0,19.0,29.91,West,259,6.0,12.0,83,0.00,,,0.15,,2013-01-31 17:23:00,
2013-01-31 12:32:00,25.0,20.0,29.91,WSW,257,4.0,12.0,82,0.00,,,0.15,,2013-01-31 17:32:00,
2013-01-31 12:44:00,25.0,20.0,29.91,WSW,257,4.0,12.0,82,0.00,,,0.15,,2013-01-31 17:44:00,
2013-01-31 12:53:00,24.0,19.0,29.91,NW,315,6.0,12.0,80,0.00,,,0.15,,2013-01-31 17:53:00,
2013-01-31 13:02:00,24.0,20.0,29.91,WNW,292,4.0,14.0,84,0.00,,,0.15,,2013-01-31 18:02:00,
2013-01-31 13:12:00,23.0,19.0,29.91,WSW,244,4.0,10.0,84,0.00,,,0.15,,2013-01-31 18:12:00,
2013-01-31 13:22:00,23.0,19.0,29.91,WSW,244,4.0,10.0,84,0.00,,,0.15,,2013-01-31 18:22:00,
2013-01-31 13:32:00,24.0,19.0,29.91,West,265,8.0,13.0,82,0.00,,,0.15,,2013-01-31 18:32:00,
2013-01-31 13:43:00,24.0,19.0,29.91,West,265,8.0,13.0,82,0.00,,,0.15,,2013-01-31 18:43:00,
2013-01-31 13:52:00,25.0,19.0,29.91,WNW,296,5.0,13.0,77,0.00,,,0.15,,2013-01-31 18:52:00,
2013-01-31 14:02:00,25.0,19.0,29.91,West,259,5.0,12.0,77,0.00,,,0.15,,2013-01-31 19:02:00,
2013-01-31 14:12:00,25.0,19.0,29.91,West,259,5.0,12.0,77,0.00,,,0.15,,2013-01-31 19:12:00,
2013-01-31 14:22:00,26.0,19.0,29.91,West,280,6.0,19.0,73,0.00,,,0.15,,2013-01-31 19:22:00,
2013-01-31 14:32:00,26.0,18.0,29.91,West,262,8.0,19.0,70,0.00,,,0.15,,2013-01-31 19:32:00,
2013-01-31 14:42:00,26.0,18.0,29.91,West,262,8.0,19.0,70,0.00,,,0.15,,2013-01-31 19:42:00,
2013-01-31 14:52:00,25.0,18.0,29.91,WNW,299,5.0,15.0,74,0.00,,,0.15,,2013-01-31 19:52:00,
2013-01-31 15:02:00,25.0,17.0,29.91,WSW,240,5.0,16.0,72,0.00,,,0.15,,2013-01-31 20:02:00,
2013-01-31 15:11:00,25.0,17.0,29.91,WSW,240,5.0,16.0,72,0.00,,,0.15,,2013-01-31 20:11:00,
2013-01-31 15:22:00,26.0,18.0,29.91,WSW,251,5.0,12.0,72,0.00,,,0.08,,2013-01-31 20:22:00,
2013-01-31 15:31:00,26.0,18.0,29.91,West,274,7.0,16.0,71,0.00,,,0.08,,2013-01-31 20:31:00,
2013-01-31 15:42:00,26.0,18.0,29.91,West,274,7.0,16.0,71,0.00,,,0.08,,2013-01-31 20:42:00,
2013-01-31 15:52:00,26.0,18.0,29.91,WNW,290,4.0,19.0,71,0.00,,,0.08,,2013-01-31 20:52:00,
2013-01-31 16:02:00,26.0,18.0,29.91,SW,218,5.0,12.0,70,0.00,,,0.08,,2013-01-31 21:02:00,
2013-01-31 16:12:00,26.0,18.0,29.91,SW,218,5.0,12.0,70,0.00,,,0.08,,2013-01-31 21:12:00,
2013-01-31 16:22:00,25.0,17.0,29.91,WNW,302,5.0,11.0,72,0.00,,,0.01,,2013-01-31 21:22:00,
2013-01-31 16:32:00,25.0,17.0,29.91,SW,221,5.0,12.0,72,0.00,,,0.01,,2013-01-31 21:32:00,
2013-01-31 16:42:00,25.0,17.0,29.91,SW,221,5.0,12.0,72,0.00,,,0.01,,2013-01-31 21:42:00,
2013-01-31 16:52:00,24.0,17.0,29.91,West,275,4.0,11.0,75,0.00,,,0.01,,2013-01-31 21:52:00,
2013-01-31 17:02:00,23.0,17.0,29.92,West,276,5.0,14.0,76,0.00,,,0.01,,2013-01-31 22:02:00,
2013-01-31 17:11:00,23.0,17.0,29.92,West,276,5.0,14.0,76,0.00,,,0.01,,2013-01-31 22:11:00,
2013-01-31 17:22:00,23.0,17.0,29.92,West,271,5.0,10.0,76,0.00,,,0.00,,2013-01-31 22:22:00,
2013-01-31 17:32:00,23.0,17.0,29.93,WNW,293,3.0,8.0,79,0.00,,,0.00,,2013-01-31 22:32:00,
2013-01-31 17:42:00,23.0,17.0,29.93,WNW,293,3.0,8.0,79,0.00,,,0.00,,2013-01-31 22:42:00,
2013-01-31 17:52:00,22.0,17.0,29.94,WNW,297,4.0,9.0,80,0.00,,,0.00,,2013-01-31 22:52:00,
2013-01-31 18:02:00,22.0,16.0,29.94,WNW,302,6.0,12.0,77,0.00,,,0.00,,2013-01-31 23:02:00,
2013-01-31 18:12:00,22.0,16.0,29.94,WNW,302,6.0,12.0,77,0.00,,,0.00,,2013-01-31 23:12:00,
2013-01-31 18:22:00,21.0,15.0,29.95,WNW,288,5.0,11.0,77,0.00,,,0.00,,2013-01-31 23:22:00,
2013-01-31 18:32:00,21.0,15.0,29.96,WNW,295,5.0,14.0,76,0.00,,,0.00,,2013-01-31 23:32:00,
2013-01-31 18:42:00,21.0,15.0,29.96,WNW,295,5.0,14.0,76,0.00,,,0.00,,2013-01-31 23:42:00,
2013-01-31 18:52:00,20.0,13.0,29.97,West,271,6.0,15.0,74,0.00,,,0.00,,2013-01-31 23:52:00,
2013-01-31 19:01:00,20.0,13.0,29.97,West,268,7.0,17.0,73,0.00,,,0.00,,2013-02-01 00:01:00,
2013-01-31 19:11:00,20.0,13.0,29.97,West,268,7.0,17.0,73,0.00,,,0.00,,2013-02-01 00:11:00,
2013-01-31 19:22:00,19.0,12.0,29.98,NNW,341,5.0,14.0,75,0.00,,,0.00,,2013-02-01 00:22:00,
2013-01-31 19:31:00,18.0,12.0,30.00,NNW,330,6.0,11.0,77,0.00,,,0.00,,2013-02-01 00:31:00,
2013-01-31 19:42:00,18.0,12.0,30.00,NNW,330,6.0,11.0,77,0.00,,,0.00,,2013-02-01 00:42:00,
2013-01-31 19:52:00,17.0,11.0,30.00,West,277,7.0,16.0,78,0.00,,,0.00,,2013-02-01 00:52:00,
2013-01-31 20:01:00,17.0,11.0,30.01,WNW,283,6.0,18.0,77,0.00,,,0.00,,2013-02-01 01:01:00,
2013-01-31 20:11:00,16.0,11.0,30.00,WNW,294,6.0,13.0,79,0.00,,,0.00,,2013-02-01 01:11:00,
2013-01-31 20:21:00,16.0,11.0,30.00,WNW,294,6.0,13.0,79,0.00,,,0.00,,2013-02-01 01:21:00,
2013-01-31 20:32:00,15.0,9.0,30.02,WNW,299,7.0,12.0,77,0.00,,,0.00,,2013-02-01 01:32:00,
2013-01-31 20:42:00,15.0,9.0,30.02,WNW,299,7.0,12.0,77,0.00,,,0.00,,2013-02-01 01:42:00,
2013-01-31 20:52:00,15.0,9.0,30.03,WNW,299,8.0,18.0,75,0.00,,,0.00,,2013-02-01 01:52:00,
2013-01-31 21:01:00,14.0,6.0,30.03,WNW,292,6.0,16.0,70,0.00,,,0.00,,2013-02-01 02:01:00,
2013-01-31 21:11:00,14.0,6.0,30.03,WNW,292,6.0,16.0,70,0.00,,,0.00,,2013-02-01 02:11:00,
2013-01-31 21:21:00,14.0,6.0,30.04,WNW,290,4.0,16.0,70,0.00,,,0.00,,2013-02-01 02:21:00,
2013-01-31 21:31:00,14.0,7.0,30.04,WNW,292,4.0,13.0,72,0.00,,,0.00,,2013-02-01 02:31:00,
2013-01-31 21:42:00,14.0,7.0,30.04,WNW,292,4.0,13.0,72,0.00,,,0.00,,2013-02-01 02:42:00,
2013-01-31 21:52:00,13.0,6.0,30.06,WNW,288,6.0,17.0,72,0.00,,,0.00,,2013-02-01 02:52:00,
2013-01-31 22:01:00,12.0,4.0,30.06,NW,317,8.0,18.0,69,0.00,,,0.00,,2013-02-01 03:01:00,
2013-01-31 22:12:00,12.0,4.0,30.06,NW,317,8.0,18.0,69,0.00,,,0.00,,2013-02-01 03:12:00,
2013-01-31 22:21:00,12.0,5.0,30.07,WNW,296,5.0,14.0,73,0.00,,,0.00,,2013-02-01 03:21:00,
2013-01-31 22:32:00,12.0,6.0,30.08,West,271,6.0,13.0,77,0.00,,,0.00,,2013-02-01 03:32:00,
2013-01-31 22:42:00,12.0,6.0,30.08,West,271,6.0,13.0,77,0.00,,,0.00,,2013-02-01 03:42:00,
2013-01-31 22:51:00,12.0,6.0,30.08,West,271,6.0,13.0,77,0.00,,,0.00,,2013-02-01 03:51:00,
2013-01-31 23:02:00,10.0,3.0,30.11,West,279,6.0,14.0,74,0.00,,,0.00,,2013-02-01 04:02:00,
2013-01-31 23:11:00,10.0,3.0,30.11,West,279,6.0,14.0,74,0.00,,,0.00,,2013-02-01 04:11:00,
2013-01-31 23:21:00,10.0,2.0,30.11,NW,309,7.0,15.0,70,0.00,,,0.00,,2013-02-01 04:21:00,
2013-01-31 23:32:00,10.0,2.0,30.11,NW,309,7.0,15.0,70,0.00,,,0.00,,2013-02-01 04:32:00,
2013-01-31 23:41:00,10.0,2.0,30.11,NW,309,7.0,15.0,70,0.00,,,0.00,,2013-02-01 04:41:00,
2013-01-31 23:51:00,9.0,1.0,30.14,NW,304,9.0,18.0,70,0.00,,,0.00,,2013-02-01 04:51:00,